User: anonymous   Login
Location: Geography Hall
(41.1195°N, 80.5706°W)
Time: 21:49:04
(UTC+00:00)
Language:

CZ-2D R/B - Orbit

View from above orbital plane
View from above orbital plane
View from above satellite
View from above satellite

Ground track
Ground track

The orbit data is extracted from the following two-line orbital elements,

1 28738U 05024B   21016.59429438  .00000376  00000-0  25328-4 0  9993
2 28738  97.3696  37.9461 0012340 159.8434 200.3287 15.12239245853613
Epoch (UTC): 16 January 2021 14:15:47
Eccentricity: 0.0012340
inclination: 97.3696°
perigee height: 521 km
apogee height: 538 km
right ascension of ascending node: 37.9461°
argument of perigee: 159.8434°
revolutions per day: 15.12239245
mean anomaly at epoch: 200.3287°
orbit number at epoch: 85361

The dashed part of the orbit path shows where the satellite is in the earth's shadow,  

DLR